User: anonymous   Login
Location: Dos Palmas
(32.4468°N, 116.8732°W)
Time: 10:43:24
(UTC+00:00)
Language:

Helios 1B rocket - Orbit

View from above orbital plane
View from above orbital plane
View from above satellite
View from above satellite

Ground track
Ground track

The orbit data is extracted from the following two-line orbital elements,

1 25979U 99064C   21259.87821685  .00000384  00000-0  39403-4 0  9992
2 25979  98.1702 202.8982 0005072 214.6662 145.4228 14.96472351182271
Epoch (UTC): 16 September 2021 21:04:37
Eccentricity: 0.0005072
inclination: 98.1702°
perigee height: 574 km
apogee height: 581 km
right ascension of ascending node: 202.8982°
argument of perigee: 214.6662°
revolutions per day: 14.96472351
mean anomaly at epoch: 145.4228°
orbit number at epoch: 18227

The dashed part of the orbit path shows where the satellite is in the earth's shadow,  

DLR